Wind_Speed
35 36 37 38 39 40 41 42 43 46 47 50 51 52 51 50 49 48 48 47 45 42 42 40 37 39 32 36 36 36 36 34 33 30 28 25 26 25 23 23 19 16 17 18
35 36 35 36 37 38 39 39 40 43 46 49 50 51 52 49 48 49 50 49 48 44 45 45 42 37 38 35 38 38 37 39 36 36 34 33 28 24 23 21 21 19 19 18
37 35 36 34 35 35 37 38 38 41 44 47 47 48 50 51 51 52 52 52 50 47 47 47 44 42 39 36 37 39 39 40 38 35 34 29 26 23 23 24 23 20 18 19
40 40 37 36 36 35 36 37 38 39 41 42 42 45 47 49 52 53 55 54 52 51 48 49 49 43 43 38 36 40 42 41 39 38 37 34 32 29 27 27 24 23 21 21
39 41 41 39 38 38 37 38 38 39 37 37 39 42 46 48 51 54 55 54 53 53 51 52 49 45 43 45 38 37 40 42 40 38 38 37 36 33 29 27 26 23 21 21
41 40 42 43 41 41 40 39 38 38 36 36 37 40 42 45 48 52 53 55 54 54 54 54 50 52 45 45 46 38 39 40 41 42 40 40 43 33 28 26 24 24 24 22
45 44 44 44 45 44 43 41 39 39 38 37 37 37 41 45 48 51 52 52 54 55 54 55 53 53 48 48 47 47 42 40 43 44 44 48 40 34 30 27 27 27 25 28
47 48 47 47 46 47 47 45 42 41 39 40 38 35 37 43 46 50 51 52 55 55 55 57 58 52 54 50 50 49 48 44 45 46 46 46 42 38 32 29 27 28 28 28
40 43 47 50 49 48 48 49 47 44 42 42 41 39 36 38 43 46 48 49 52 55 58 59 59 60 58 55 53 53 50 49 46 47 48 48 42 36 35 32 29 29 29 29
31 35 37 43 48 48 48 47 48 47 45 44 45 44 40 38 41 44 46 46 50 55 57 57 59 59 56 61 54 54 53 54 53 49 48 47 41 37 35 36 30 28 30 31
23 26 29 31 36 43 46 46 47 47 46 46 47 47 45 42 41 42 45 50 50 54 56 55 54 57 56 60 59 54 54 54 55 55 51 48 42 39 37 35 32 31 32 31
18 21 24 23 20 27 37 42 41 45 46 47 48 49 49 47 44 40 42 44 52 53 56 55 56 56 56 56 65 57 57 56 55 53 50 46 39 39 37 38 38 36 37 36
15 16 21 23 25 19 26 31 38 43 45 47 48 50 49 48 45 43 43 41 45 54 53 54 54 54 53 54 57 63 59 56 54 52 52 48 44 40 40 41 40 38 39 37
18 13 16 20 29 27 20 23 28 34 34 41 45 47 49 49 48 45 46 46 45 48 54 53 54 54 53 51 54 57 61 60 56 52 52 48 44 41 41 42 42 39 39 40
13 13 11 17 24 30 29 25 25 23 31 28 32 43 46 49 49 49 48 47 47 49 49 51 55 53 54 52 53 54 54 56 63 56 51 44 39 42 46 46 44 42 39 40
14 11 6 10 19 18 21 31 29 23 18 18 23 25 36 43 47 49 49 50 51 51 51 49 51 53 55 56 54 49 52 53 54 57 52 46 44 46 49 50 46 43 41 40
18 13 6 5 12 19 19 26 30 27 27 21 17 18 22 32 40 45 50 52 53 53 56 53 52 50 48 58 58 51 53 52 54 52 52 50 45 47 49 45 46 46 44 41
27 19 13 11 14 20 19 20 29 27 26 23 21 15 15 19 25 35 43 50 54 55 56 55 55 50 49 57 58 57 53 50 51 51 50 48 50 47 49 49 48 47 45 43
32 28 22 20 16 15 16 20 29 28 31 23 14 13 14 14 17 22 32 42 50 56 57 58 64 60 59 53 50 54 57 53 50 50 50 47 46 52 51 49 48 47 46 45
29 34 31 21 10 15 21 20 22 25 25 22 17 14 13 15 18 21 22 29 39 49 56 60 65 62 56 55 51 48 47 51 51 50 50 49 49 48 52 52 48 48 48 47
27 33 32 23 20 21 21 23 25 27 28 22 21 13 14 13 14 12 16 22 28 42 46 53 63 63 57 56 56 52 49 46 44 46 48 50 48 49 50 53 53 50 49 48
26 26 28 27 24 23 26 27 29 28 26 18 16 15 13 12 15 18 17 17 22 35 37 41 55 60 60 61 60 57 55 52 47 43 43 47 49 47 48 49 49 51 49 47
27 31 30 32 29 30 32 27 27 26 24 18 12 13 13 8 8 12 10 15 19 26 37 39 49 58 65 65 63 62 58 54 51 44 42 42 47 50 49 49 48 44 49 49
30 38 31 36 39 34 29 19 22 23 19 18 19 17 16 17 14 15 22 25 23 23 26 35 43 52 56 63 66 65 62 58 52 48 43 38 40 44 50 47 46 45 43 45
29 31 35 35 33 27 25 17 20 19 21 21 20 21 20 21 23 23 27 32 28 24 13 33 42 43 47 54 63 67 65 62 56 51 47 39 38 41 44 47 46 45 44 43
32 33 24 16 18 22 22 21 23 24 22 22 20 21 23 26 26 25 24 26 29 26 19 37 39 36 42 48 58 63 65 63 59 55 50 44 39 39 41 43 45 47 45 44
31 23 21 18 14 18 19 19 20 21 23 25 28 26 26 27 30 29 24 25 25 20 22 23 49 35 29 39 47 56 59 60 58 57 55 49 44 43 41 43 44 47 48 47
Wind_Direction
270 264 261 258 254 251 247 244 243 241 239 238 236 234 233 232 232 231 231 228 228 225 224 228 228 226 224 220 220 225 224 226 227 227 227 227 230 232 234 236 233 238 239 239
270 264 258 255 252 250 248 245 245 243 240 238 236 235 234 232 229 230 231 228 227 225 222 226 228 225 223 223 220 222 221 224 225 227 225 225 230 234 237 237 232 232 235 236
269 267 260 251 250 249 249 247 247 246 241 237 236 234 234 232 228 227 227 228 226 225 223 224 227 226 224 221 222 221 220 225 226 231 236 234 238 240 237 233 231 231 229 230
266 259 257 252 248 248 247 246 245 244 243 240 238 235 234 231 228 228 227 225 224 225 221 222 224 226 222 220 220 220 222 225 226 228 229 228 229 230 230 228 225 226 221 227
268 261 252 250 247 246 244 243 242 241 241 238 237 234 232 230 228 226 226 226 224 223 222 221 224 224 223 222 221 222 223 223 224 226 228 229 230 231 233 232 228 225 222 229
266 261 256 248 242 242 243 240 238 240 236 235 236 233 229 228 225 226 225 225 223 223 221 222 223 219 222 220 218 218 222 222 223 226 226 228 230 230 234 236 230 223 221 224
263 257 253 249 243 238 239 239 237 235 237 234 234 232 228 226 225 224 222 223 221 222 221 222 221 223 220 222 221 218 217 216 218 224 225 228 228 229 232 232 229 227 222 229
259 252 248 246 242 238 237 236 236 234 233 233 233 231 229 228 227 225 222 220 220 219 220 222 220 222 217 221 221 220 220 219 220 222 225 232 228 227 233 236 232 227 224 230
259 251 245 241 239 238 235 236 236 234 233 231 231 230 227 229 228 225 223 220 219 218 219 222 223 222 218 217 221 220 220 221 223 224 223 227 228 225 230 234 234 230 225 230
264 252 244 238 235 235 235 233 233 233 232 231 229 228 226 226 227 225 221 219 219 218 220 224 226 226 222 218 221 222 221 220 222 225 225 226 225 225 231 234 234 233 227 230
269 252 245 239 235 232 233 231 230 230 231 229 228 228 226 225 224 225 225 219 217 218 218 221 228 229 225 222 218 221 223 224 225 225 226 226 223 224 229 236 232 229 229 229
279 252 239 232 219 225 229 230 229 227 228 227 226 227 228 227 223 222 225 221 219 219 221 222 225 228 229 226 222 218 222 224 228 230 230 232 229 227 225 228 231 231 230 229
311 262 242 230 217 203 214 224 227 226 225 226 226 226 225 229 227 222 221 222 222 222 222 223 223 226 230 229 228 222 221 223 228 230 230 228 225 224 225 226 230 231 231 232
345 280 251 235 213 207 205 219 224 224 224 226 226 227 227 226 228 225 222 219 220 222 225 225 224 224 227 229 230 228 224 223 227 228 230 230 227 228 226 226 229 231 231 231
323 340 261 236 217 207 211 214 218 212 218 228 230 228 229 227 225 226 225 220 217 222 224 228 228 225 227 229 231 230 229 227 227 228 231 230 227 228 229 229 229 232 233 232
287 316 326 235 219 202 209 214 215 213 193 219 225 227 232 230 228 226 226 225 223 221 221 224 228 228 228 228 228 228 231 229 230 230 231 229 225 227 229 230 230 230 231 233
261 268 270 237 222 208 207 210 211 211 209 213 227 238 242 234 231 230 228 228 227 223 221 226 226 228 232 230 226 226 228 226 229 230 228 227 226 228 231 232 233 232 231 232
248 243 228 229 227 212 208 211 210 210 210 221 232 250 235 254 241 233 232 231 230 228 225 223 225 221 224 228 224 223 227 227 228 230 230 227 220 224 227 228 229 231 233 232
239 237 218 227 241 223 206 210 208 209 210 219 205 200 210 247 255 244 235 235 233 230 229 224 223 223 228 231 232 230 228 229 230 231 230 229 226 223 227 228 229 230 231 233
227 232 238 242 205 194 206 213 212 213 224 223 202 206 219 225 243 255 246 238 236 232 230 230 229 228 230 233 235 236 234 233 232 230 229 228 229 228 226 227 228 230 231 233
214 226 232 228 200 207 210 213 209 214 208 217 205 221 227 217 240 240 252 246 239 233 230 234 233 228 229 232 236 237 238 238 236 233 231 229 228 228 230 230 228 229 231 234
208 225 225 221 206 211 214 218 218 214 219 198 194 201 214 226 242 255 268 275 257 237 229 230 231 225 229 228 232 233 234 236 239 236 231 229 229 229 231 234 235 232 232 235
203 216 222 217 213 216 219 222 218 198 177 175 189 226 231 207 251 256 287 302 299 272 237 226 230 231 229 227 229 231 231 231 232 234 235 230 229 228 230 233 235 233 233 233
208 214 219 216 223 231 231 217 222 209 209 225 241 241 252 244 264 272 291 289 304 314 259 227 226 231 231 229 229 232 232 230 228 228 231 228 226 228 231 233 233 233 233 235
200 214 219 221 233 238 239 228 220 224 225 234 254 259 261 255 262 283 282 276 286 302 249 203 220 220 225 227 228 229 231 232 230 226 225 223 223 227 228 229 231 231 232 236
197 213 215 217 231 228 219 217 215 218 237 250 258 260 262 261 258 270 278 289 296 296 271 213 215 212 219 226 227 224 227 230 230 230 226 223 220 222 225 227 229 232 232 232
198 207 203 196 203 210 214 219 231 243 252 260 263 267 271 267 259 271 287 301 291 272 280 263 219 202 218 223 225 225 224 226 228 228 227 222 222 220 224 224 226 229 232 232
Height
5546 5547 5548 5550 5552 5555 5558 5562 5568 5572 5577 5584 5588 5595 5603 5611 5616 5622 5629 5636 5642 5649 5655 5661 5666 5671 5676 5680 5685 5691 5696 5701 5705 5709 5712 5715 5717 5720 5723 5725 5729 5730 5731 5734
5536 5537 5538 5539 5541 5543 5546 5550 5555 5559 5565 5570 5576 5583 5591 5599 5606 5611 5617 5625 5632 5638 5645 5651 5656 5662 5666 5672 5677 5681 5689 5691 5697 5700 5704 5706 5711 5715 5718 5720 5723 5725 5727 5730
5525 5525 5526 5528 5530 5532 5535 5539 5544 5548 5553 5558 5563 5569 5577 5586 5592 5598 5603 5612 5620 5627 5633 5639 5647 5653 5659 5664 5668 5673 5678 5683 5689 5696 5700 5705 5707 5710 5712 5714 5717 5721 5723 5724
5510 5512 5514 5516 5518 5521 5524 5528 5532 5536 5540 5546 5551 5557 5565 5572 5579 5586 5591 5599 5607 5615 5622 5628 5635 5643 5649 5655 5660 5664 5668 5676 5681 5686 5691 5696 5700 5702 5705 5708 5713 5715 5718 5719
5495 5497 5499 5502 5506 5509 5514 5517 5521 5525 5530 5535 5539 5544 5552 5558 5565 5572 5580 5587 5595 5603 5611 5618 5625 5633 5640 5646 5652 5657 5661 5667 5673 5678 5683 5688 5692 5695 5699 5703 5706 5710 5713 5714
5480 5482 5483 5487 5493 5497 5501 5505 5510 5514 5520 5524 5528 5533 5540 5547 5552 5560 5567 5575 5583 5591 5598 5606 5613 5621 5628 5635 5641 5647 5652 5658 5664 5670 5675 5679 5681 5690 5695 5699 5702 5705 5707 5710
5463 5466 5468 5472 5477 5483 5488 5493 5499 5503 5509 5514 5517 5522 5528 5533 5540 5547 5555 5563 5571 5578 5587 5595 5602 5610 5617 5624 5630 5637 5642 5649 5653 5658 5664 5664 5678 5684 5688 5692 5695 5699 5703 5703
5444 5447 5451 5455 5461 5468 5474 5480 5486 5492 5498 5503 5508 5513 5518 5522 5529 5536 5543 5551 5557 5566 5574 5582 5589 5597 5605 5613 5620 5627 5633 5638 5643 5648 5655 5661 5670 5677 5682 5686 5691 5693 5697 5698
5426 5429 5433 5438 5445 5452 5459 5466 5473 5480 5486 5491 5498 5503 5508 5513 5518 5525 5533 5540 5548 5556 5562 5569 5575 5584 5595 5602 5609 5616 5622 5629 5634 5639 5644 5650 5662 5671 5675 5679 5683 5687 5691 5692
5412 5414 5418 5422 5429 5436 5443 5451 5459 5466 5473 5480 5486 5491 5497 5503 5508 5515 5522 5529 5537 5543 5551 5559 5567 5574 5584 5590 5599 5607 5612 5616 5622 5628 5635 5643 5654 5663 5668 5671 5681 5680 5683 5685
5402 5404 5407 5411 5416 5423 5429 5437 5445 5453 5460 5467 5473 5480 5486 5492 5497 5504 5511 5519 5525 5532 5540 5548 5556 5563 5572 5579 5588 5595 5603 5609 5613 5619 5627 5636 5646 5654 5661 5666 5669 5672 5675 5678
5396 5397 5400 5404 5408 5412 5417 5425 5431 5439 5447 5454 5461 5468 5474 5481 5488 5496 5501 5509 5515 5520 5527 5537 5544 5552 5559 5569 5574 5585 5591 5599 5605 5613 5622 5630 5640 5646 5650 5653 5658 5663 5666 5670
5392 5392 5394 5397 5402 5406 5410 5414 5420 5427 5434 5441 5449 5455 5463 5470 5478 5485 5492 5498 5504 5510 5517 5524 5532 5540 5549 5555 5564 5573 5578 5588 5594 5602 5610 5618 5626 5633 5639 5644 5648 5653 5658 5662
5390 5388 5389 5391 5396 5401 5405 5408 5412 5418 5426 5431 5436 5443 5451 5458 5466 5474 5480 5486 5492 5499 5505 5511 5519 5530 5536 5544 5551 5557 5569 5577 5584 5592 5598 5608 5616 5623 5628 5633 5637 5643 5648 5653
5389 5386 5384 5386 5389 5394 5399 5404 5407 5412 5418 5423 5427 5431 5439 5446 5454 5461 5468 5475 5481 5487 5494 5500 5508 5517 5523 5531 5537 5545 5556 5566 5572 5580 5589 5598 5606 5611 5616 5621 5627 5632 5638 5643
5385 5383 5382 5382 5385 5388 5394 5399 5403 5408 5412 5416 5419 5423 5427 5434 5443 5450 5457 5464 5470 5476 5482 5490 5496 5504 5511 5516 5525 5538 5544 5552 5560 5567 5576 5586 5593 5598 5604 5609 5617 5622 5627 5632
5379 5380 5380 5380 5382 5385 5389 5394 5399 5403 5406 5410 5414 5417 5420 5425 5431 5438 5444 5450 5458 5465 5471 5479 5486 5494 5497 5502 5514 5527 5530 5538 5546 5553 5562 5573 5582 5588 5593 5601 5606 5612 5617 5622
5373 5375 5377 5378 5379 5381 5384 5389 5393 5398 5401 5406 5409 5414 5417 5418 5422 5428 5432 5438 5445 5454 5461 5470 5476 5481 5485 5489 5505 5514 5521 5530 5536 5544 5552 5561 5567 5573 5579 5587 5593 5600 5606 5612
5365 5368 5371 5372 5374 5378 5384 5385 5388 5392 5397 5400 5404 5409 5412 5413 5415 5419 5423 5427 5434 5440 5450 5458 5461 5469 5472 5489 5498 5504 5513 5519 5527 5533 5541 5550 5557 5563 5568 5575 5582 5589 5595 5601
5357 5360 5363 5369 5374 5376 5379 5382 5384 5388 5391 5396 5401 5405 5408 5410 5411 5412 5417 5418 5423 5429 5438 5439 5444 5460 5474 5479 5487 5494 5502 5508 5515 5522 5530 5538 5546 5551 5557 5564 5571 5577 5583 5589
5348 5350 5359 5367 5369 5372 5375 5377 5380 5382 5386 5391 5397 5401 5403 5406 5407 5408 5408 5410 5413 5417 5425 5428 5436 5452 5466 5472 5475 5483 5491 5497 5505 5513 5520 5526 5533 5540 5545 5551 5558 5565 5571 5577
5345 5350 5356 5362 5364 5366 5369 5371 5375 5378 5381 5386 5393 5398 5400 5401 5403 5404 5406 5405 5405 5408 5413 5414 5421 5448 5443 5452 5461 5469 5478 5487 5493 5501 5509 5515 5522 5530 5535 5541 5547 5555 5561 5566
5340 5344 5349 5355 5358 5357 5360 5365 5371 5375 5380 5386 5390 5393 5395 5397 5398 5399 5400 5400 5401 5400 5399 5407 5427 5424 5430 5441 5447 5454 5463 5473 5482 5489 5496 5504 5511 5517 5524 5530 5536 5543 5549 5555
5333 5338 5344 5348 5348 5351 5356 5366 5370 5376 5379 5383 5385 5387 5389 5391 5392 5393 5393 5393 5393 5392 5394 5405 5407 5411 5419 5428 5434 5443 5449 5458 5468 5477 5484 5492 5500 5507 5513 5520 5526 5531 5537 5542
5332 5338 5340 5342 5347 5353 5359 5364 5368 5373 5376 5379 5380 5382 5384 5385 5385 5387 5385 5382 5382 5384 5386 5394 5394 5396 5401 5409 5418 5427 5437 5446 5456 5464 5472 5481 5488 5495 5502 5508 5513 5519 5525 5530
5331 5333 5339 5343 5347 5352 5358 5363 5366 5370 5372 5374 5375 5376 5377 5377 5376 5378 5377 5376 5375 5375 5373 5374 5381 5389 5393 5397 5402 5412 5423 5434 5444 5454 5462 5469 5476 5483 5489 5494 5501 5508 5513 5518
5329 5334 5340 5343 5347 5351 5356 5360 5364 5366 5367 5368 5368 5369 5369 5368 5368 5368 5368 5366 5366 5364 5362 5361 5361 5372 5381 5384 5390 5402 5410 5420 5431 5440 5449 5458 5464 5469 5475 5483 5488 5493 5499 5505